Regional Weather Roundup
Issued by NWS Little Rock, AR

Home | Current Version | Previous Version | Graphics & Text | Print | Product List | Glossary On
Versions: 1 2 3 4 5 6 7 8 9 10 11 12 13 14 15 16 17 18 19 20 21 22 23 24 25 26 27
000
ASUS44 KLZK 251605
RWRLZK

WEATHER ROUNDUP FOR ARKANSAS
NATIONAL WEATHER SERVICE LITTLE ROCK AR
1100 AM CDT SAT OCT 25 2014

NOTE: "FAIR" INDICATES FEW OR NO CLOUDS BELOW 12,000 FEET WITH NO
SIGNIFICANT WEATHER AND/OR OBSTRUCTIONS TO VISIBILITY.

ARZ001-003-010-029-251700-
NORTHWEST ARKANSAS

CITY           SKY/WX    TMP DP  RH WIND       PRES   REMARKS
FAYETTEVILLE   SUNNY     73  62  68 S9        30.13S
FORT SMITH     SUNNY     68  61  78 NE5       30.12S
HARRISON       SUNNY     76  61  59 W10       30.11S
BENTONVILLE    SUNNY     72  61  68 W6        30.13S
ROGERS         SUNNY     70  61  73 W9        30.14S
SILOAM SPGS    SUNNY     72  59  64 SW8       30.14S
HIGHFILL       SUNNY     72  62  71 SW9       30.13R
SPRINGDALE     SUNNY     73  61  64 SW7       30.15S
$$

ARZ004-005-016-251700-
NORTH CENTRAL ARKANSAS

CITY           SKY/WX    TMP DP  RH WIND       PRES   REMARKS
BATESVILLE     SUNNY     77  64  65 W5        30.08F
FLIPPIN        SUNNY     70  59  68 SE3       30.10S
MTN HOME       SUNNY     71  61  70 VRB5      30.09S
$$

ARZ040-041-251700-
WEST CENTRAL ARKANSAS

CITY           SKY/WX    TMP DP  RH WIND       PRES   REMARKS
MENA           SUNNY     75  61  60 W10G16    30.16F
MOUNT IDA      SUNNY     76  62  62 VRB6      30.11F
$$

ARZ009-017-025-026-028-251700-
NORTHEAST ARKANSAS

CITY           SKY/WX    TMP DP  RH WIND       PRES   REMARKS
CORNING        FAIR      72  63  73 W3        30.08F
JONESBORO      PTSUNNY   73  61  65 W6        30.08S
NEWPORT        SUNNY     77  63  61 W6        30.10S
WALNUT RIDGE   SUNNY     72  61  68 NW6       30.08S
BLYTHEVILLE    MOSUNNY   73  61  65 SW5       30.09S
$$

ARZ022-023-033-042-044-251700-
CENTRAL ARKANSAS

CITY           SKY/WX    TMP DP  RH WIND       PRES   REMARKS
LITTLE ROCK    SUNNY     76  60  57 W6        30.12F
N LITTLE ROCK  SUNNY     75  64  68 W6        30.12F
JACKSONVILLE   SUNNY     74  62  65 W5        30.11F
SEARCY         SUNNY     75  64  68 VRB5      30.11F
HOT SPRINGS    SUNNY     72  60  66 NW5       30.14F
RUSSELLVILLE   SUNNY     71  61  70 CALM      30.12S
$$

ARZ036-251700-
EAST ARKANSAS

CITY           SKY/WX    TMP DP  RH WIND       PRES   REMARKS
WEST MEMPHIS   SUNNY     72  61  68 W6        30.09F
$$

ARZ050-053-066-070-073-251700-
SOUTHWEST ARKANSAS

CITY           SKY/WX    TMP DP  RH WIND       PRES   REMARKS
ARKADELPHIA    FAIR      74  64  70 SW9       30.15F
CAMDEN         SUNNY     73  57  56 NE5       30.16S
TEXARKANA      SUNNY     75  60  59 W13       30.16F
EL DORADO      SUNNY     73  59  61 SW7       30.17F
DE QUEEN       SUNNY     71  62  73 W6        30.15S
$$

ARZ056-057-069-251700-
SOUTHEAST ARKANSAS

CITY           SKY/WX    TMP DP  RH WIND       PRES   REMARKS
PINE BLUFF     SUNNY     73  58  59 W15G21    30.13F
STUTTGART      SUNNY     73  61  64 W12       30.13S
MONTICELLO     LGT RAIN  72  58  61 W10       30.15F

$$





USA.gov is the U.S. government's official web portal to all federal, state and local government web resources and services.